| time (UTC) | temp C | wind direction | speed KPH | gust KPH | rain 1hr cm | rain 24hr cm | rain mn cm | humidity % | barometer mb |
| 20260508103027 | 9 | 45 | 0.0 | 1.6 | 0.00 | 0.69 | 0.00 | 85 | 1019.6 |
| 20260508101524 | 9 | 45 | 0.0 | 1.6 | 0.00 | 0.69 | 0.00 | 85 | 1019.6 |
| 20260508100024 | 9 | 45 | 0.0 | 0.0 | 0.00 | 0.69 | 0.00 | 84 | 1019.6 |
| 20260508094538 | 8 | 45 | 0.0 | 1.6 | 0.00 | 0.89 | 0.00 | 86 | 1019.6 |
| 20260508093024 | 8 | 45 | 0.0 | 0.0 | 0.00 | 0.89 | 0.00 | 86 | 1019.7 |
| 20260508091536 | 8 | 45 | 0.0 | 0.0 | 0.00 | 0.89 | 0.00 | 86 | 1019.7 |
| 20260508090011 | 8 | 45 | 0.0 | 0.0 | 0.00 | 0.89 | 0.00 | 87 | 1019.7 |
| 20260508084509 | 8 | 45 | 0.0 | 1.6 | 0.00 | 1.09 | 0.00 | 89 | 1019.7 |
| 20260508083005 | 7 | 45 | 0.0 | 0.0 | 0.00 | 1.09 | 0.00 | 90 | 1019.5 |
| 20260508081513 | 7 | 45 | 0.0 | 0.0 | 0.00 | 1.09 | 0.00 | 91 | 1019.6 |
| 20260508080001 | 7 | 45 | 0.0 | 1.6 | 0.00 | 1.09 | 0.00 | 91 | 1019.5 |
| 20260508074600 | 7 | 45 | 0.0 | 0.0 | 0.00 | 1.35 | 0.00 | 91 | 1019.4 |
| 20260508073107 | 7 | 45 | 0.0 | 6.4 | 0.00 | 1.35 | 0.00 | 92 | 1019.4 |
| 20260508071621 | 7 | 45 | 0.0 | 0.0 | 0.00 | 1.35 | 0.00 | 92 | 1019.3 |
| 20260508070100 | 6 | 45 | 0.0 | 0.0 | 0.00 | 1.35 | 0.00 | 92 | 1019.2 |
| 20260508064552 | 6 | 45 | 0.0 | 0.0 | 0.00 | 1.52 | 0.00 | 92 | 1019.1 |
| 20260508063050 | 6 | 45 | 0.0 | 0.0 | 0.00 | 1.52 | 0.00 | 92 | 1019.0 |
| 20260508061548 | 6 | 45 | 0.0 | 0.0 | 0.00 | 1.52 | 0.00 | 92 | 1018.7 |
| 20260508060046 | 6 | 45 | 0.0 | 0.0 | 0.00 | 1.52 | 0.00 | 93 | 1018.7 |
| 20260508054549 | 6 | 45 | 0.0 | 1.6 | 0.00 | 1.88 | 0.00 | 93 | 1018.7 |
| 20260508053050 | 6 | 45 | 0.0 | 1.6 | 0.00 | 1.88 | 0.00 | 93 | 1018.5 |
| 20260508051544 | 6 | 45 | 0.0 | 1.6 | 0.00 | 1.88 | 0.00 | 93 | 1018.5 |
| 20260508050042 | 6 | 45 | 0.0 | 0.0 | 0.00 | 1.88 | 0.00 | 92 | 1018.4 |
| 20260508044514 | 6 | 45 | 0.0 | 1.6 | 0.00 | 2.21 | 0.00 | 92 | 1018.2 |
| 20260508043015 | 6 | 45 | 0.0 | 0.0 | 0.00 | 2.21 | 0.00 | 93 | 1018.2 |
| 20260508041512 | 6 | 45 | 0.0 | 0.0 | 0.00 | 2.21 | 0.00 | 93 | 1018.1 |
| 20260508040016 | 6 | 45 | 0.0 | 1.6 | 0.00 | 2.21 | 0.00 | 92 | 1018.0 |
| 20260508034609 | 6 | 45 | 0.0 | 0.0 | 0.00 | 2.49 | 0.00 | 92 | 1017.9 |
| 20260508033008 | 6 | 45 | 0.0 | 4.8 | 0.00 | 2.49 | 0.00 | 92 | 1017.8 |
| 20260508031507 | 6 | 45 | 0.0 | 1.6 | 0.00 | 2.49 | 0.00 | 92 | 1017.8 |
| 20260508030006 | 6 | 45 | 0.0 | 4.8 | 0.00 | 2.49 | 0.00 | 92 | 1017.7 |
| 20260508024506 | 6 | 45 | 0.0 | 0.0 | 0.00 | 2.59 | 0.00 | 92 | 1017.7 |
| 20260508023006 | 6 | 45 | 0.0 | 3.2 | 0.00 | 2.59 | 0.00 | 92 | 1017.8 |
| 20260508021506 | 6 | 45 | 0.0 | 0.0 | 0.00 | 2.59 | 0.00 | 92 | 1017.6 |
| 20260508020006 | 6 | 45 | 0.0 | 4.8 | 0.00 | 2.59 | 0.00 | 92 | 1017.7 |
| 20260508014504 | 6 | 45 | 0.0 | 0.0 | 0.00 | 2.59 | 0.00 | 92 | 1017.7 |
| 20260508013002 | 6 | 45 | 0.0 | 1.6 | 0.00 | 2.59 | 0.00 | 92 | 1017.6 |
| 20260508011502 | 6 | 45 | 0.0 | 1.6 | 0.00 | 2.59 | 0.00 | 92 | 1017.6 |
| 20260508010001 | 6 | 45 | 0.0 | 1.6 | 0.00 | 2.59 | 0.00 | 92 | 1017.8 |
| 20260508004501 | 6 | 45 | 0.0 | 1.6 | 0.00 | 2.59 | 0.00 | 92 | 1017.8 |
| 20260508003101 | 6 | 45 | 0.0 | 6.4 | 0.00 | 2.59 | 0.00 | 92 | 1017.7 |
| 20260508001605 | 6 | 45 | 0.0 | 0.0 | 0.00 | 2.59 | 0.00 | 92 | 1017.7 |
| 20260508000058 | 6 | 45 | 0.0 | 3.2 | 0.00 | 2.59 | 0.00 | 92 | 1017.7 |
| 20260507234558 | 6 | 45 | 0.0 | 1.6 | 0.00 | 2.59 | 0.00 | 92 | 1017.6 |
| 20260507233057 | 6 | 45 | 0.0 | 1.6 | 0.00 | 2.59 | 0.00 | 92 | 1017.7 |
| 20260507231557 | 6 | 45 | 0.0 | 4.8 | 0.00 | 2.59 | 0.00 | 92 | 1017.8 |
| 20260507230056 | 6 | 45 | 0.0 | 0.0 | 0.00 | 2.59 | 0.00 | 92 | 1017.7 |
| 20260507224555 | 6 | 45 | 0.0 | 1.6 | 0.00 | 2.59 | 0.00 | 92 | 1017.7 |
| 20260507223053 | 6 | 45 | 0.0 | 8.0 | 0.03 | 2.59 | 0.00 | 92 | 1017.7 |
| 20260507221552 | 6 | 45 | 0.0 | 0.0 | 0.03 | 2.59 | 0.00 | 92 | 1017.7 |
| 20260507220050 | 6 | 45 | 0.0 | 0.0 | 0.03 | 2.59 | 0.00 | 92 | 1017.7 |
| 20260507214550 | 6 | 45 | 0.0 | 1.6 | 0.03 | 2.62 | 2.59 | 92 | 1017.6 |
| 20260507213055 | 6 | 45 | 0.0 | 1.6 | 0.00 | 2.59 | 2.59 | 92 | 1017.6 |
| 20260507211553 | 6 | 45 | 0.0 | 1.6 | 0.00 | 2.59 | 2.59 | 92 | 1017.5 |
| 20260507210047 | 6 | 45 | 0.0 | 0.0 | 0.00 | 2.59 | 2.59 | 92 | 1017.5 |
| 20260507204547 | 6 | 45 | 0.0 | 3.2 | 0.00 | 2.62 | 2.59 | 92 | 1017.5 |
| 20260507203046 | 6 | 45 | 0.0 | 1.6 | 0.00 | 2.62 | 2.59 | 92 | 1017.4 |
| 20260507201548 | 6 | 45 | 0.0 | 0.0 | 0.00 | 2.62 | 2.59 | 92 | 1017.2 |
| 20260507200044 | 6 | 45 | 0.0 | 1.6 | 0.00 | 2.62 | 2.59 | 92 | 1016.9 |
| 20260507194540 | 6 | 45 | 0.0 | 1.6 | 0.00 | 2.62 | 2.59 | 92 | 1017.0 |
| 20260507193042 | 6 | 45 | 0.0 | 3.2 | 0.00 | 2.62 | 2.59 | 92 | 1016.9 |
| 20260507191537 | 6 | 45 | 0.0 | 1.6 | 0.00 | 2.62 | 2.59 | 92 | 1016.7 |
| 20260507190034 | 6 | 45 | 0.0 | 0.0 | 0.00 | 2.62 | 2.59 | 92 | 1016.4 |
| 20260507184534 | 6 | 45 | 0.0 | 1.6 | 0.00 | 2.62 | 2.59 | 92 | 1016.3 |
| 20260507183036 | 6 | 45 | 0.0 | 3.2 | 0.00 | 2.62 | 2.59 | 92 | 1016.3 |
| 20260507181530 | 7 | 45 | 0.0 | 3.2 | 0.03 | 2.62 | 2.59 | 92 | 1016.2 |
| 20260507180041 | 7 | 45 | 0.0 | 1.6 | 0.03 | 2.62 | 2.59 | 92 | 1016.1 |
| 20260507174527 | 7 | 45 | 0.0 | 1.6 | 0.03 | 2.62 | 2.59 | 92 | 1015.9 |
| 20260507173029 | 7 | 45 | 0.0 | 1.6 | 0.03 | 2.62 | 2.59 | 92 | 1015.8 |
| 20260507171524 | 7 | 45 | 0.0 | 3.2 | 0.03 | 2.59 | 2.57 | 92 | 1015.6 |
| 20260507170041 | 7 | 45 | 0.0 | 4.8 | 0.05 | 2.59 | 2.57 | 92 | 1015.5 |
| 20260507164522 | 7 | 45 | 0.0 | 3.2 | 0.05 | 2.59 | 2.57 | 92 | 1015.3 |
| 20260507163020 | 7 | 45 | 0.0 | 8.0 | 0.05 | 2.59 | 2.57 | 92 | 1015.3 |
| 20260507161519 | 7 | 38 | 0.0 | 4.8 | 0.05 | 2.59 | 2.54 | 92 | 1015.2 |
| 20260507160021 | 7 | 40 | 0.0 | 6.4 | 0.05 | 2.57 | 2.51 | 92 | 1015.1 |
| 20260507154517 | 7 | 36 | 1.6 | 6.4 | 0.05 | 2.59 | 2.51 | 93 | 1015.0 |
| 20260507153016 | 6 | 37 | 0.0 | 6.4 | 0.08 | 2.59 | 2.51 | 92 | 1014.9 |
| 20260507151518 | 7 | 18 | 0.0 | 6.4 | 0.08 | 2.59 | 2.49 | 92 | 1014.8 |
| 20260507150015 | 7 | 17 | 1.6 | 6.4 | 0.08 | 2.57 | 2.49 | 92 | 1014.7 |
| 20260507144511 | 7 | 21 | 1.6 | 4.8 | 0.08 | 2.54 | 2.46 | 92 | 1014.5 |
| 20260507143010 | 7 | 24 | 0.0 | 3.2 | 0.10 | 2.51 | 2.44 | 92 | 1014.4 |
| 20260507141509 | 7 | 26 | 1.6 | 8.0 | 0.10 | 2.49 | 2.41 | 92 | 1014.3 |
| 20260507140008 | 7 | 30 | 0.0 | 4.8 | 0.10 | 2.49 | 2.39 | 92 | 1014.4 |
| 20260507134508 | 7 | 36 | 0.0 | 3.2 | 0.13 | 2.46 | 2.39 | 92 | 1014.2 |
| 20260507133005 | 7 | 39 | 0.0 | 8.0 | 0.10 | 2.41 | 2.34 | 92 | 1014.0 |
| 20260507131503 | 7 | 32 | 1.6 | 8.0 | 0.10 | 2.39 | 2.31 | 92 | 1013.8 |
| 20260507130001 | 7 | 55 | 0.0 | 3.2 | 0.13 | 2.39 | 2.31 | 92 | 1013.6 |
| 20260507124602 | 7 | 63 | 0.0 | 6.4 | 0.10 | 2.34 | 2.26 | 93 | 1013.4 |
| 20260507123058 | 7 | 55 | 1.6 | 9.7 | 0.13 | 2.31 | 2.24 | 93 | 1013.3 |
| 20260507121559 | 7 | 33 | 1.6 | 8.0 | 0.15 | 2.31 | 2.21 | 93 | 1013.0 |
| 20260507120056 | 7 | 16 | 0.0 | 6.4 | 0.15 | 2.29 | 2.21 | 93 | 1012.9 |
| 20260507114554 | 7 | 45 | 1.6 | 9.7 | 0.15 | 2.24 | 2.16 | 93 | 1012.8 |
| 20260507113052 | 7 | 50 | 3.2 | 9.7 | 0.13 | 2.21 | 2.11 | 93 | 1012.6 |
| 20260507111550 | 7 | 38 | 1.6 | 8.0 | 0.13 | 2.16 | 2.08 | 93 | 1012.6 |
| 20260507110057 | 7 | 45 | 1.6 | 9.7 | 0.13 | 2.13 | 2.06 | 93 | 1012.4 |
| 20260507104551 | 7 | 45 | 4.8 | 14.5 | 0.15 | 2.11 | 2.03 | 93 | 1012.3 |
| 20260507103111 | 7 | 45 | 1.6 | 8.0 | 0.15 | 2.08 | 2.01 | 93 | 1012.2 |